Temp
-6 -6 -6 -7 -6 -6 -6 -6 -6 -6 -6 -6 -7 -7 -6 -6 -6 -6 -5 -5 -5 -5 -5 -5 -6 -6 -6 -6 -5 -5 -6 -6 -6 -6 -6 -6 -5 -6 -6 -6 -6 -6 -6
-6 -6 -6 -7 -7 -7 -7 -7 -6 -6 -6 -7 -6 -7 -7 -6 -6 -6 -6 -6 -5 -5 -5 -5 -5 -6 -6 -6 -6 -5 -5 -6 -5 -6 -6 -6 -6 -6 -6 -6 -6 -6 -6
-6 -6 -6 -6 -7 -7 -7 -7 -7 -6 -6 -6 -6 -6 -7 -6 -6 -6 -6 -6 -6 -5 -5 -5 -5 -6 -6 -6 -6 -6 -6 -6 -6 -6 -6 -6 -6 -6 -6 -6 -6 -6 -6
-6 -6 -6 -7 -7 -7 -7 -7 -7 -7 -7 -7 -7 -7 -7 -7 -6 -6 -7 -6 -6 -6 -6 -6 -5 -5 -6 -6 -6 -6 -6 -6 -6 -6 -6 -6 -7 -6 -6 -6 -6 -6 -6
-7 -6 -6 -7 -7 -7 -7 -7 -7 -7 -7 -7 -7 -7 -7 -7 -7 -7 -7 -7 -6 -6 -6 -6 -6 -6 -6 -6 -6 -6 -6 -6 -6 -6 -6 -6 -6 -6 -6 -6 -6 -6 -6
-7 -6 -6 -7 -7 -7 -7 -7 -7 -7 -7 -8 -8 -8 -7 -7 -7 -7 -7 -7 -7 -6 -6 -6 -6 -6 -6 -6 -6 -6 -6 -6 -6 -6 -6 -6 -7 -6 -6 -6 -6 -6 -6
-7 -7 -7 -7 -7 -7 -8 -8 -8 -8 -8 -8 -8 -9 -8 -8 -7 -7 -7 -7 -7 -7 -6 -6 -6 -6 -6 -6 -6 -6 -6 -6 -6 -6 -6 -6 -6 -6 -7 -6 -6 -6 -6
-7 -7 -7 -7 -8 -8 -8 -8 -8 -8 -8 -8 -9 -9 -9 -8 -8 -7 -7 -7 -7 -7 -7 -7 -7 -6 -6 -6 -6 -6 -6 -7 -7 -7 -7 -7 -7 -6 -7 -7 -6 -6 -6
-7 -7 -7 -8 -8 -8 -8 -8 -7 -8 -8 -9 -9 -9 -9 -9 -8 -8 -7 -7 -7 -7 -7 -7 -7 -7 -6 -6 -6 -6 -6 -7 -7 -7 -7 -7 -7 -7 -7 -7 -7 -7 -7
-7 -7 -7 -7 -7 -7 -7 -7 -8 -8 -8 -8 -9 -9 -9 -8 -8 -8 -7 -7 -7 -7 -7 -7 -7 -7 -7 -6 -6 -6 -6 -6 -7 -7 -7 -7 -7 -7 -7 -7 -7 -7 -7
-8 -7 -7 -8 -7 -7 -7 -8 -8 -8 -8 -8 -8 -9 -9 -9 -8 -8 -8 -7 -8 -7 -8 -7 -8 -7 -7 -7 -6 -6 -7 -6 -7 -7 -7 -7 -7 -7 -7 -7 -7 -7 -7
-7 -7 -7 -7 -7 -7 -7 -8 -8 -8 -8 -8 -9 -9 -9 -9 -9 -9 -8 -7 -7 -7 -7 -8 -7 -7 -7 -7 -7 -6 -7 -7 -7 -7 -7 -7 -7 -7 -7 -7 -7 -7 -7
-8 -7 -7 -7 -7 -7 -7 -8 -9 -8 -8 -8 -8 -8 -9 -9 -9 -9 -8 -7 -7 -7 -7 -7 -8 -7 -7 -7 -7 -7 -7 -7 -7 -7 -7 -7 -7 -7 -8 -8 -7 -7 -7
-8 -7 -7 -7 -7 -8 -8 -8 -8 -8 -8 -8 -8 -8 -9 -9 -9 -9 -8 -7 -7 -6 -7 -7 -7 -8 -8 -7 -7 -6 -6 -7 -7 -7 -7 -8 -8 -7 -7 -8 -7 -7 -7
-8 -8 -7 -7 -7 -7 -8 -8 -8 -8 -8 -8 -8 -8 -8 -9 -9 -9 -9 -8 -8 -7 -6 -7 -7 -8 -7 -7 -7 -7 -7 -7 -7 -7 -7 -7 -8 -8 -8 -7 -7 -7 -8
-8 -8 -7 -7 -8 -8 -8 -8 -8 -8 -8 -8 -9 -9 -9 -9 -9 -9 -8 -8 -8 -7 -7 -7 -7 -7 -8 -7 -7 -7 -7 -7 -7 -7 -7 -8 -8 -8 -8 -7 -7 -7 -8
-8 -8 -7 -8 -8 -8 -8 -8 -9 -9 -9 -9 -8 -8 -9 -9 -9 -8 -8 -8 -8 -7 -7 -7 -7 -7 -7 -7 -8 -7 -7 -6 -8 -7 -7 -7 -8 -8 -7 -7 -8 -8 -8
-9 -8 -8 -8 -8 -8 -7 -8 -8 -9 -9 -9 -9 -9 -9 -9 -9 -8 -8 -8 -8 -7 -8 -8 -7 -7 -7 -7 -7 -8 -7 -7 -7 -7 -7 -7 -7 -7 -7 -8 -8 -8 -8
-8 -8 -8 -8 -8 -8 -8 -8 -8 -8 -8 -8 -8 -9 -9 -9 -9 -9 -8 -9 -8 -8 -8 -8 -8 -7 -7 -7 -8 -8 -8 -7 -7 -7 -7 -7 -7 -7 -7 -8 -8 -8 -8
-9 -9 -8 -8 -8 -8 -8 -8 -9 -9 -8 -9 -9 -9 -9 -9 -8 -9 -8 -8 -8 -8 -8 -8 -8 -8 -8 -8 -8 -8 -8 -7 -7 -7 -7 -7 -8 -8 -8 -8 -8 -7 -8
-9 -9 -9 -9 -8 -8 -9 -9 -9 -9 -9 -9 -9 -9 -9 -9 -9 -9 -8 -8 -8 -8 -8 -8 -8 -8 -8 -8 -8 -8 -8 -7 -7 -7 -8 -7 -7 -8 -8 -8 -8 -7 -8
-8 -10 -10 -10 -9 -8 -8 -9 -9 -9 -8 -9 -8 -8 -8 -8 -8 -8 -8 -8 -8 -8 -8 -8 -8 -8 -8 -9 -8 -8 -8 -8 -7 -8 -7 -7 -8 -8 -7 -8 -8 -7 -7
-7 -8 -9 -8 -9 -8 -8 -9 -8 -9 -9 -8 -8 -8 -8 -8 -7 -8 -8 -8 -8 -8 -8 -8 -8 -8 -8 -8 -8 -8 -8 -8 -8 -8 -7 -7 -8 -8 -7 -7 -7 -8 -7
-6 -8 -9 -9 -8 -8 -8 -9 -9 -9 -9 -8 -8 -8 -8 -8 -8 -7 -8 -8 -8 -8 -8 -8 -8 -8 -8 -8 -8 -8 -8 -8 -7 -7 -7 -7 -8 -8 -8 -7 -7 -7 -7
-9 -7 -9 -9 -8 -8 -9 -9 -9 -8 -8 -8 -8 -8 -8 -8 -8 -7 -8 -8 -8 -8 -8 -8 -8 -8 -8 -8 -8 -8 -8 -8 -7 -7 -7 -8 -8 -8 -7 -7 -8 -8 -7
-8 -8 -8 -9 -8 -9 -9 -9 -8 -9 -8 -8 -8 -8 -8 -8 -8 -8 -8 -8 -8 -8 -8 -8 -8 -8 -8 -8 -7 -8 -8 -8 -7 -7 -8 -8 -7 -8 -8 -7 -8 -7 -8
Height
5897 5897 5898 5899 5900 5901 5901 5903 5904 5905 5905 5906 5906 5907 5907 5908 5909 5910 5911 5911 5913 5914 5915 5917 5916 5916 5918 5918 5920 5921 5922 5923 5922 5922 5922 5921 5921 5920 5920 5920 5919 5919 5918
5897 5897 5898 5900 5900 5901 5901 5903 5904 5905 5906 5906 5907 5906 5908 5908 5909 5909 5910 5911 5913 5914 5914 5916 5917 5917 5917 5919 5920 5922 5923 5923 5924 5924 5923 5922 5922 5923 5922 5923 5921 5921 5920
5896 5896 5897 5898 5900 5900 5901 5902 5903 5904 5906 5907 5908 5908 5908 5909 5909 5909 5910 5911 5912 5914 5914 5915 5916 5918 5917 5918 5920 5922 5923 5924 5925 5925 5924 5923 5923 5924 5925 5925 5924 5923 5922
5896 5895 5896 5896 5898 5899 5899 5900 5902 5904 5905 5906 5907 5907 5908 5909 5909 5909 5911 5912 5912 5914 5914 5916 5915 5917 5918 5919 5920 5921 5923 5925 5926 5926 5926 5926 5926 5926 5927 5927 5926 5926 5924
5895 5895 5895 5895 5897 5897 5898 5898 5900 5902 5904 5904 5905 5906 5907 5908 5909 5909 5911 5912 5912 5914 5915 5916 5916 5916 5918 5918 5920 5921 5923 5924 5926 5926 5927 5927 5929 5929 5929 5929 5928 5928 5926
5893 5893 5894 5894 5895 5896 5896 5897 5898 5899 5900 5901 5903 5905 5905 5906 5908 5908 5909 5911 5912 5913 5916 5916 5916 5916 5918 5919 5920 5921 5923 5925 5926 5927 5928 5928 5929 5930 5930 5930 5929 5929 5928
5893 5893 5894 5894 5894 5894 5894 5895 5895 5896 5897 5899 5900 5902 5903 5904 5906 5907 5908 5910 5911 5913 5914 5916 5916 5916 5918 5919 5921 5922 5923 5925 5927 5928 5929 5929 5930 5930 5930 5930 5930 5930 5929
5894 5893 5893 5892 5892 5893 5893 5893 5894 5895 5896 5897 5898 5899 5900 5902 5904 5905 5906 5908 5909 5911 5913 5915 5915 5916 5918 5920 5922 5922 5924 5925 5926 5927 5929 5929 5930 5930 5930 5930 5931 5930 5930
5893 5892 5891 5890 5890 5891 5892 5893 5893 5894 5894 5894 5895 5897 5898 5899 5901 5904 5905 5906 5908 5909 5911 5913 5914 5916 5917 5919 5920 5922 5924 5925 5925 5927 5927 5928 5929 5930 5930 5931 5930 5930 5929
5891 5890 5889 5887 5887 5889 5890 5891 5894 5894 5893 5891 5892 5895 5896 5898 5900 5902 5906 5905 5906 5908 5909 5911 5912 5915 5917 5918 5920 5922 5923 5925 5925 5926 5926 5926 5928 5929 5929 5929 5930 5929 5929
5888 5888 5884 5883 5885 5887 5888 5890 5892 5893 5892 5891 5891 5891 5893 5896 5899 5901 5903 5905 5906 5907 5908 5908 5910 5913 5914 5916 5918 5920 5922 5923 5924 5924 5924 5925 5926 5927 5927 5928 5928 5928 5928
5887 5885 5881 5881 5884 5885 5886 5887 5888 5887 5888 5889 5888 5888 5888 5891 5894 5898 5901 5902 5904 5906 5907 5907 5908 5910 5912 5914 5916 5918 5920 5921 5921 5922 5920 5923 5923 5924 5925 5926 5927 5928 5928
5882 5880 5881 5881 5882 5883 5883 5884 5886 5885 5884 5883 5882 5884 5885 5885 5889 5892 5896 5898 5900 5903 5905 5906 5906 5907 5909 5912 5914 5917 5919 5919 5919 5920 5922 5923 5923 5922 5923 5925 5926 5927 5927
5882 5879 5878 5879 5880 5880 5879 5881 5881 5880 5881 5883 5882 5882 5883 5882 5882 5888 5890 5891 5894 5898 5901 5904 5904 5905 5907 5909 5912 5914 5917 5917 5917 5917 5919 5920 5921 5922 5921 5922 5924 5925 5925
5883 5880 5876 5875 5877 5876 5876 5876 5876 5877 5878 5879 5879 5879 5881 5882 5883 5883 5884 5887 5889 5891 5895 5900 5901 5903 5906 5907 5909 5912 5914 5913 5912 5908 5916 5919 5920 5920 5921 5920 5921 5922 5923
5884 5878 5874 5874 5875 5874 5873 5873 5874 5874 5876 5876 5874 5874 5876 5877 5878 5879 5879 5882 5884 5886 5889 5894 5896 5901 5902 5905 5906 5908 5911 5911 5910 5910 5912 5915 5917 5917 5918 5917 5918 5919 5920
5879 5877 5876 5875 5876 5875 5873 5871 5871 5871 5874 5871 5869 5870 5870 5872 5873 5873 5874 5875 5878 5880 5881 5887 5892 5895 5899 5901 5903 5905 5907 5895 5907 5910 5902 5912 5914 5915 5915 5914 5914 5916 5917
5878 5876 5874 5872 5871 5871 5873 5871 5871 5871 5868 5867 5866 5865 5865 5866 5866 5868 5869 5869 5873 5875 5876 5881 5887 5889 5894 5897 5899 5901 5904 5903 5904 5906 5908 5909 5912 5912 5911 5911 5912 5912 5915
5878 5876 5874 5871 5869 5867 5867 5864 5862 5861 5862 5862 5862 5860 5859 5857 5858 5860 5862 5864 5869 5871 5874 5876 5881 5884 5888 5893 5895 5896 5901 5903 5903 5903 5905 5906 5908 5909 5907 5908 5909 5909 5911
5876 5876 5875 5872 5868 5865 5863 5861 5861 5859 5855 5855 5855 5852 5851 5848 5848 5853 5855 5860 5864 5866 5868 5869 5873 5877 5883 5888 5891 5892 5897 5900 5901 5903 5903 5904 5906 5906 5907 5906 5906 5905 5906
5873 5872 5873 5870 5867 5864 5862 5858 5856 5853 5851 5846 5841 5838 5839 5841 5841 5844 5850 5854 5858 5861 5863 5865 5868 5873 5878 5882 5886 5889 5893 5894 5897 5899 5901 5902 5903 5903 5904 5905 5904 5904 5901
5868 5869 5868 5867 5865 5861 5859 5856 5851 5848 5844 5837 5833 5832 5832 5832 5834 5839 5843 5848 5852 5855 5858 5860 5861 5867 5873 5877 5880 5885 5889 5892 5893 5894 5895 5896 5898 5899 5900 5900 5900 5900 5898
5867 5866 5866 5864 5861 5859 5856 5852 5847 5843 5837 5830 5827 5825 5824 5825 5826 5831 5836 5840 5846 5851 5853 5856 5857 5862 5868 5873 5877 5882 5883 5886 5889 5890 5890 5891 5894 5895 5896 5896 5895 5894 5894
5865 5865 5864 5862 5859 5854 5852 5849 5843 5838 5833 5827 5822 5821 5819 5819 5821 5825 5829 5834 5840 5845 5850 5852 5855 5859 5864 5868 5872 5877 5880 5882 5882 5884 5885 5887 5889 5891 5891 5891 5890 5890 5889
5862 5854 5858 5861 5860 5852 5847 5843 5837 5832 5826 5822 5820 5818 5816 5815 5817 5820 5825 5830 5835 5839 5843 5847 5851 5855 5858 5861 5866 5869 5874 5876 5878 5878 5880 5881 5884 5885 5886 5886 5886 5886 5886
5857 5852 5856 5860 5856 5847 5843 5841 5835 5830 5823 5820 5819 5818 5816 5814 5816 5818 5822 5825 5829 5832 5836 5842 5846 5850 5853 5855 5860 5864 5868 5870 5872 5874 5874 5877 5878 5880 5881 5880 5880 5881 5882
Wind_Speed
3 2 1 6 8 9 8 8 9 10 9 7 5 4 3 4 6 9 10 10 10 12 11 11 12 12 10 11 10 9 10 9 10 12 12 14 15 16 18 17 16 15 15
3 3 3 5 7 9 9 8 8 9 9 8 8 5 6 6 5 9 11 10 11 12 13 12 12 11 10 10 10 10 10 9 10 10 12 11 13 12 14 16 17 15 14
7 5 6 6 9 10 11 11 12 11 12 13 13 11 10 9 7 7 11 12 10 12 14 14 13 12 11 10 11 10 10 9 10 11 10 11 11 11 12 13 15 15 14
7 6 8 9 11 11 11 12 13 14 15 13 12 16 16 12 9 7 9 11 11 11 14 15 16 14 12 11 11 9 9 9 7 9 8 10 10 10 10 11 12 12 14
6 7 8 10 12 12 12 12 13 13 14 13 10 9 11 13 11 9 9 10 12 12 13 15 17 17 14 14 12 10 8 8 6 6 5 6 7 9 9 10 12 13 15
7 5 8 9 11 13 12 13 12 13 13 12 12 11 11 14 13 11 10 9 11 13 13 15 17 18 16 14 14 13 10 8 6 4 3 3 4 6 8 9 11 13 15
5 6 7 7 8 10 10 9 10 12 13 12 12 12 13 17 16 13 9 9 10 13 12 13 16 18 17 15 13 12 12 9 7 6 5 2 2 2 4 6 8 10 12
9 10 10 10 9 9 9 8 10 10 10 12 12 12 9 18 19 15 12 11 11 13 15 13 14 17 17 16 13 12 11 8 7 6 4 3 2 2 1 4 5 7 8
8 11 12 13 15 16 16 14 12 12 11 13 13 13 10 15 20 22 16 13 12 13 16 14 14 14 17 17 14 12 11 9 9 7 6 5 4 3 3 2 3 3 3
10 9 13 14 16 18 19 18 16 13 12 15 14 14 12 12 15 19 21 17 14 15 17 16 14 13 13 15 15 13 12 10 10 7 8 8 8 5 4 5 4 3 2
7 11 9 12 16 16 18 18 17 16 15 13 14 13 16 15 13 17 20 18 15 15 16 17 15 15 13 13 14 14 13 12 10 12 10 9 9 8 6 5 6 6 5
11 8 11 11 10 11 14 17 17 17 17 17 15 15 12 17 20 17 16 25 18 16 18 18 19 18 17 14 13 14 13 11 13 16 13 11 10 9 7 6 6 8 8
14 13 11 9 9 9 10 11 14 15 17 14 16 14 13 11 22 19 17 27 29 23 19 19 20 21 22 17 16 15 14 15 16 14 13 13 12 10 10 8 8 7 9
15 16 14 11 9 7 9 10 11 8 13 15 14 14 13 18 22 18 15 20 32 34 23 23 22 22 19 18 17 16 17 17 16 16 15 14 14 14 13 11 11 11 12
15 14 14 12 9 5 6 8 8 12 12 15 14 15 17 18 19 16 15 16 21 28 32 29 27 25 23 20 19 17 18 18 21 17 15 15 15 15 15 13 13 14 14
14 18 16 14 9 4 3 7 9 9 11 13 13 18 18 20 20 19 18 20 26 23 39 35 28 28 23 23 21 20 19 20 19 15 17 15 18 16 15 15 15 15 13
17 18 18 15 9 7 6 5 3 4 9 12 11 11 15 19 19 19 18 17 20 24 31 34 33 33 30 24 22 20 24 17 20 19 17 17 19 18 18 17 17 17 15
15 17 19 17 15 14 10 8 9 8 9 9 13 15 18 20 19 18 17 18 19 21 26 37 38 34 31 29 26 23 25 16 18 18 17 16 14 16 16 17 18 18 18
14 16 17 19 17 17 17 15 16 16 14 14 19 21 23 25 24 22 20 20 21 19 16 30 38 38 33 32 29 23 22 21 19 18 16 18 14 15 18 14 13 14 14
14 13 18 19 16 17 18 18 18 18 20 20 24 25 25 27 27 26 24 22 22 20 18 21 37 39 37 32 31 27 26 25 24 20 18 20 19 18 19 17 11 14 19
20 20 22 26 21 15 18 21 24 26 25 31 30 26 26 27 30 28 27 25 22 21 20 19 32 37 38 33 33 32 27 28 26 24 23 20 18 19 19 17 17 16 25
11 15 20 27 25 22 22 25 26 28 33 30 21 19 20 25 32 30 28 26 24 24 22 20 27 34 37 38 33 35 30 29 27 25 20 18 19 18 21 19 20 18 16
15 19 26 28 22 22 25 23 26 28 34 27 22 20 19 17 22 30 30 29 27 24 22 20 20 30 34 36 34 33 31 28 24 23 18 19 18 19 21 22 24 23 19
19 24 25 24 20 18 24 26 27 30 33 23 21 17 18 17 19 23 27 27 29 28 24 21 22 27 30 33 38 38 33 24 22 21 21 21 19 19 21 22 23 18 18
19 27 11 16 18 22 25 28 30 35 31 20 15 15 15 14 14 19 23 22 23 27 28 25 23 23 24 29 30 38 38 34 32 26 22 19 18 20 21 22 21 19 17
21 23 18 17 21 25 24 26 28 39 25 17 16 15 13 10 10 16 19 22 24 27 30 27 24 23 28 29 29 29 34 37 31 28 20 21 19 19 22 24 21 18 16
Wind_Direction
45 59 186 181 196 201 185 192 195 190 187 191 189 205 223 229 221 208 211 192 196 183 183 177 163 160 151 136 129 124 118 104 93 86 80 81 72 65 60 57 56 48 49
281 303 245 226 222 229 217 221 224 219 210 214 213 212 240 240 231 226 212 205 204 190 180 180 176 168 160 146 140 135 127 114 102 90 82 79 78 72 69 60 58 53 47
282 279 260 244 222 225 228 220 229 234 237 239 241 237 238 239 238 236 209 208 212 197 185 183 178 177 169 157 151 142 136 126 110 95 85 79 77 70 66 68 62 55 51
278 264 253 238 237 238 239 234 229 233 241 244 246 247 243 230 230 216 214 210 212 208 193 187 177 177 175 166 159 149 147 132 123 104 78 71 64 69 70 62 64 53 51
288 261 248 249 245 248 251 249 241 241 241 249 249 239 230 219 213 209 216 214 205 214 205 192 186 177 180 171 167 163 158 151 140 121 103 71 55 60 69 69 63 59 53
265 280 264 251 248 253 252 250 249 248 246 244 240 240 224 212 203 202 207 218 201 196 213 201 197 184 186 179 176 169 170 163 152 158 138 100 58 45 74 70 67 69 59
295 261 262 252 246 250 254 254 254 248 246 246 248 244 225 213 204 199 197 209 207 199 204 206 199 197 193 192 186 182 178 172 170 181 189 186 111 49 71 90 72 68 58
272 272 267 268 262 261 262 268 274 275 264 255 261 253 247 218 206 197 202 202 208 201 199 205 196 199 196 203 194 198 190 189 186 203 205 202 251 280 177 119 96 79 61
298 282 270 262 263 265 267 264 273 286 280 267 251 247 239 217 213 208 205 211 205 205 202 201 202 201 199 205 208 210 201 211 214 206 208 215 232 267 261 209 162 126 64
306 297 275 268 264 263 265 267 269 274 277 265 259 251 240 230 223 206 203 223 214 207 207 204 200 205 206 206 215 216 214 207 217 208 214 218 231 239 260 239 232 240 300
302 296 279 268 265 266 268 271 273 274 273 273 268 258 242 228 227 218 217 218 228 222 211 208 203 208 209 210 215 225 218 214 212 220 213 216 222 232 254 248 248 260 283
339 319 313 291 283 273 267 264 265 268 268 260 256 252 224 229 222 225 231 235 230 230 223 212 207 211 212 219 214 223 225 219 215 219 200 214 218 222 239 252 253 269 282
352 345 342 327 299 290 279 282 278 273 264 254 248 255 235 224 218 239 257 235 234 232 226 222 218 218 212 220 223 225 229 221 208 211 233 227 231 229 232 244 261 274 288
342 334 331 334 345 305 279 283 259 286 265 268 257 254 246 227 221 239 269 228 222 233 232 229 227 222 216 224 223 228 229 227 221 210 216 225 234 234 233 243 262 273 283
348 339 332 332 319 292 283 261 251 265 270 267 260 254 250 240 241 237 247 234 223 230 224 231 232 224 227 227 230 228 229 228 230 218 213 224 232 236 243 255 268 276 282
340 348 352 349 359 6 296 270 266 262 261 262 257 240 242 247 245 250 243 230 229 243 230 228 228 229 231 229 234 231 229 228 230 228 225 231 232 239 245 256 262 268 282
339 344 344 351 5 34 32 7 354 277 245 253 265 254 250 249 244 242 247 245 253 251 230 221 218 229 230 226 231 231 235 229 215 227 234 239 238 244 252 259 257 263 274
330 332 337 345 345 346 355 345 318 310 311 295 285 274 253 246 244 244 245 247 246 245 225 224 224 224 225 224 226 230 243 235 214 229 234 248 245 250 259 260 260 261 271
309 321 332 337 337 342 346 352 340 327 317 306 292 277 264 258 247 240 240 243 240 239 234 228 223 223 219 229 227 222 234 237 225 223 234 241 256 247 253 257 263 275 277
315 324 334 335 335 337 346 350 344 330 318 310 301 282 271 260 251 243 239 237 237 235 236 225 218 219 217 225 223 225 226 231 231 228 233 242 254 253 252 248 262 283 278
331 329 336 337 328 321 337 343 340 335 325 316 305 283 264 253 248 240 236 236 234 234 235 232 223 217 219 223 228 224 222 229 232 232 232 235 247 256 270 276 283 281 309
321 332 324 324 316 318 321 323 330 334 331 323 310 270 260 256 242 239 234 234 232 234 235 243 228 218 219 224 233 226 220 226 234 238 237 241 247 255 265 275 281 286 289
302 322 315 312 317 320 325 332 333 338 338 327 317 297 281 259 243 230 229 230 225 229 235 239 225 215 219 227 228 230 223 219 237 241 242 245 249 256 265 271 281 282 278
316 314 327 316 320 323 331 337 343 343 342 328 317 297 285 274 247 236 224 226 224 232 233 236 230 222 225 234 231 228 235 221 234 240 246 248 252 257 265 276 286 281 278
314 317 330 327 309 330 338 342 347 349 343 333 330 321 299 280 247 221 220 223 227 232 230 235 229 232 229 234 229 231 232 234 236 239 235 242 252 260 271 281 281 272 273
320 337 347 313 327 340 345 342 349 359 349 338 332 323 312 287 231 217 220 229 237 231 226 228 229 234 232 240 231 224 229 236 240 247 248 250 250 257 271 282 273 272 271